ONEWEB-0020, 45133

Orbit data source: Space-Track

ONEWEB-0020, 45133 is a payload satellite owned by One Web (UK) in LEO that was launched on Thu, 06 Feb 2020 UTC via a SOYUZ-2-1B launch vehicle from the Tyuratam Missile And Space Complex (TTMTR). Payloads include a variety of satellites, spacecraft, and rockets equipped with specific instruments for various scientific and technological missions. These include communications satellites like Starlink; space stations such as the ISS; scientific satellites like the Hubble; Earth observation satellites from companies like Planet Labs, Umbra, and HawkEye 360; GPS; miniature CubeSats for education and research; and military/defense satellites.

Loading next visibility...
ONEWEB-0020 details
Identifier
45133, 2020-008C
Orbit
LEO
Last TLE update22 hours ago
Origin
Flag of UKOne Web (UK)
ManufacturerOne Web
MissionOperational Commercial Communications
Bus & MotorARROW, Unknown motor
Mass148 kg wet, ~140 kg dry
Launch date (UTC)
2020-02-06 (5 years ago)
Launch vehicle
SOYUZ-2-1B
Launch site
Tyuratam Missile And Space Complex (TTMTR)
Object type
Payload
Rocket body
Debris
Shape & HBRTrap Box + 2 Pan, 5 m
Radar Cross Section2.957 m², Large (>1 m²)

Expand to show TLE details & history

TLE from 22 hours ago
0 ONEWEB-0020
1 45133U 20008C   24360.49675249 -.00000187  00000-0 -57214-3 0  9997
2 45133  87.8897 143.5614 0001703 103.0987 257.0330 13.10369094237792
Epoch: 2024-12-25T11:55Z
Definitive object data (Epoch: 2024-12-25T11:55:19.415Z)
Latitude-0.00005°
Longitude-129.75916°
Altitude1,224.91 km
Speed7.242 km/s
True Right ascension09h 34m 14s
True Declination0° 00' 00"
Sunlit
Object was in full shadow at TLE epoch
Visualization TLE readout
Latitude-15.03136°
Longitude-130.50441°
Altitude1,228.344 km
Speed7.239 km/s
Apparent Right ascension10h 10m 27s
Apparent Declination-67° 27' 30"
Sunlit
Object is in daylight
Visualization observer readout
Local Sidereal Time09:11:18
Azimuth174.095° S
Elevation-17.96°
Doppler factor1
Orbital elements
Apogee altitude1,220.145 km
Perigee altitude1,217.558 km
Semi-major axis7,596.988 km
Eccentricity0.0001703
Inclination87.8897°
RAAN143.5614°
Arg. of periapsis103.0987°
True anomaly257.01398°
Mean anomaly257.033°
Eccentric anomaly257.02349°
Mean motion3.27779 °/min
BSTAR-0.00057214
Orbital period109.83 mins
Loading maneuver chart data...
Loading historical data...
Loading historical data...
Loading historical data...
Loading historical data...
Loading historical data...
Loading historical data...
Loading historical data...

ONEWEB-0020 Visibility forecast

Observer location: undefined°, undefined

Span
Click to sort rows by Start time (UTC) header in descending order
Start Az.
Max El. time (UTC)
Max El. Az.
Max El.
End time (UTC)
End Az.
14 mins2024-12-26 10:00:12.897Z170.616° S2024-12-26 10:07:12.897Z69.064° E43.955°2024-12-26 10:14:12.897Z4.168° NNE
8 mins2024-12-26 11:54:12.897Z253.457° W2024-12-26 11:57:12.897Z281.048° WNW17.855°2024-12-26 12:02:12.897Z325.955° NNW
13 mins2024-12-26 21:31:12.897Z9.032° NNE2024-12-26 21:37:12.897Z86.686° E41.234°2024-12-26 21:44:12.897Z165.845° S
9 mins2024-12-26 23:22:12.897Z326.546° NNW2024-12-26 23:26:12.897Z288.479° WNW21.913°2024-12-26 23:31:12.897Z240.106° WSW
|